THY1QW LTFM-LATI

Flight info

Callsign THY1QW
Flight time 1h 23m
Altitude 36000
Route VADEN1D/35L VADEN DCT BAKLO DCT LETNI DCT MAVAR DCT ODRAS
Aircraft B738/M-SDE2E3FGHIRWXY/LB1

Departure

Time 2026-05-01 11:29
Airport İstanbul Airport (LTFM)

Arrival

Time 2026-05-01 12:52
Airport Tirana International Airport Mother Teresa (LATI)
Time Latitude Longitude Altitude Speed Heading
2026-05-01 10:47 41.26558 28.73789 333 ft 0 kts 269°
2026-05-01 11:11 41.26558 28.73794 333 ft 3 kts 269°
2026-05-01 11:12 41.26556 28.73829 333 ft 4 kts 283°
2026-05-01 11:12 41.26548 28.73862 333 ft 4 kts 303°
2026-05-01 11:12 41.26530 28.73886 331 ft 4 kts 335°
2026-05-01 11:12 41.26522 28.73891 333 ft 1 kts 343°
2026-05-01 11:17 41.26523 28.73890 333 ft 1 kts 343°
2026-05-01 11:18 41.26535 28.73886 333 ft 3 kts 348°
2026-05-01 11:18 41.26559 28.73883 330 ft 4 kts 358°
2026-05-01 11:18 41.26589 28.73882 329 ft 5 kts 358°
2026-05-01 11:18 41.26624 28.73880 329 ft 5 kts 358°
2026-05-01 11:19 41.26664 28.73877 333 ft 6 kts 356°
2026-05-01 11:19 41.26708 28.73877 333 ft 7 kts
2026-05-01 11:19 41.26757 28.73876 333 ft 7 kts 358°
2026-05-01 11:19 41.26810 28.73875 331 ft 8 kts 357°
2026-05-01 11:20 41.26863 28.73849 330 ft 9 kts 314°
2026-05-01 11:20 41.26874 28.73767 333 ft 10 kts 269°
2026-05-01 11:20 41.26871 28.73666 333 ft 12 kts 266°
2026-05-01 11:20 41.26872 28.73551 332 ft 13 kts 271°
2026-05-01 11:21 41.26871 28.73419 333 ft 15 kts 268°
2026-05-01 11:21 41.26868 28.73270 333 ft 17 kts 269°
2026-05-01 11:21 41.26867 28.73124 329 ft 12 kts 269°
2026-05-01 11:21 41.26866 28.73073 333 ft 0 kts 269°
2026-05-01 11:22 41.26866 28.73068 333 ft 2 kts 269°
2026-05-01 11:22 41.26866 28.73047 330 ft 3 kts 269°
2026-05-01 11:22 41.26859 28.73012 333 ft 5 kts 242°
2026-05-01 11:23 41.26829 28.72989 329 ft 6 kts 189°
2026-05-01 11:23 41.26780 28.72989 330 ft 8 kts 178°
2026-05-01 11:23 41.26742 28.72991 329 ft 0 kts 178°
2026-05-01 11:23 41.26733 28.72990 333 ft 2 kts 182°
2026-05-01 11:24 41.26718 28.72973 332 ft 4 kts 242°
2026-05-01 11:24 41.26716 28.72952 332 ft 1 kts 271°
2026-05-01 11:24 41.26717 28.72919 331 ft 5 kts 271°
2026-05-01 11:25 41.26717 28.72854 331 ft 9 kts 268°
2026-05-01 11:25 41.26714 28.72661 331 ft 10 kts 269°
2026-05-01 11:25 41.26712 28.72569 329 ft 10 kts 268°
2026-05-01 11:26 41.26720 28.72516 332 ft 5 kts 321°
2026-05-01 11:26 41.26736 28.72514 330 ft 0 kts
2026-05-01 11:28 41.26750 28.72514 330 ft 11 kts
2026-05-01 11:28 41.27078 28.72507 330 ft 83 kts 359°
2026-05-01 11:29 41.28963 28.72486 808 ft 157 kts
2026-05-01 11:29 41.30062 28.72510 1590 ft 157 kts
2026-05-01 11:29 41.32242 28.72671 3070 ft 163 kts
2026-05-01 11:30 41.33417 28.72668 3785 ft 173 kts
2026-05-01 11:30 41.34617 28.72644 4481 ft 179 kts
2026-05-01 11:30 41.35955 28.72622 4721 ft 201 kts 359°
2026-05-01 11:30 41.37365 28.72114 4996 ft 221 kts 337°
2026-05-01 11:31 41.38715 28.70993 5250 ft 237 kts 322°
2026-05-01 11:31 41.39770 28.69271 5488 ft 244 kts 307°
2026-05-01 11:31 41.40671 28.67338 5704 ft 246 kts 304°
2026-05-01 11:31 41.41550 28.65363 5941 ft 249 kts 304°
2026-05-01 11:32 41.42430 28.63372 6203 ft 250 kts 304°
2026-05-01 11:32 41.43300 28.61404 6447 ft 250 kts 304°
2026-05-01 11:32 41.44192 28.59401 6616 ft 252 kts 304°
2026-05-01 11:32 41.45076 28.57418 6877 ft 247 kts 304°
2026-05-01 11:33 41.45959 28.55444 7128 ft 250 kts 304°
2026-05-01 11:33 41.46853 28.53447 7385 ft 252 kts 304°
2026-05-01 11:33 41.47754 28.51437 7642 ft 253 kts 304°
2026-05-01 11:33 41.48661 28.49418 7893 ft 254 kts 304°
2026-05-01 11:34 41.49571 28.47388 8142 ft 255 kts 304°
2026-05-01 11:34 41.50484 28.45352 8392 ft 256 kts 304°
2026-05-01 11:34 41.51398 28.43312 8643 ft 256 kts 304°
2026-05-01 11:34 41.52301 28.41296 8884 ft 257 kts 304°
2026-05-01 11:35 41.53216 28.39252 9137 ft 257 kts 304°
2026-05-01 11:35 41.54132 28.37204 9388 ft 257 kts 303°
2026-05-01 11:35 41.55049 28.35154 9636 ft 258 kts 303°
2026-05-01 11:35 41.55971 28.33094 9881 ft 258 kts 303°
2026-05-01 11:36 41.56892 28.31033 10138 ft 259 kts 303°
2026-05-01 11:36 41.57813 28.28967 10392 ft 259 kts 302°
2026-05-01 11:36 41.58661 28.26841 10643 ft 260 kts 298°
2026-05-01 11:36 41.59471 28.24685 10892 ft 260 kts 298°
2026-05-01 11:37 41.60268 28.22545 11145 ft 261 kts 297°
2026-05-01 11:37 41.61077 28.20378 11393 ft 261 kts 297°
2026-05-01 11:37 41.61890 28.18208 11647 ft 261 kts 297°
2026-05-01 11:37 41.62706 28.16038 11897 ft 262 kts 297°
2026-05-01 11:38 41.63524 28.13865 12146 ft 261 kts 297°
2026-05-01 11:38 41.64341 28.11696 12389 ft 261 kts 297°
2026-05-01 11:38 41.65158 28.09527 12644 ft 262 kts 296°
2026-05-01 11:38 41.65976 28.07351 12897 ft 262 kts 296°
2026-05-01 11:39 41.66786 28.05200 13144 ft 263 kts 296°
2026-05-01 11:39 41.67613 28.03015 13394 ft 264 kts 298°
2026-05-01 11:39 41.68558 28.00908 13649 ft 265 kts 302°
2026-05-01 11:39 41.69572 27.98830 13901 ft 267 kts 302°
2026-05-01 11:40 41.70594 27.96758 14154 ft 267 kts 302°
2026-05-01 11:40 41.71618 27.94680 14406 ft 268 kts 302°
2026-05-01 11:40 41.72640 27.92595 14653 ft 268 kts 302°
2026-05-01 11:40 41.73658 27.90509 14909 ft 268 kts 301°
2026-05-01 11:41 41.74677 27.88413 15155 ft 268 kts 301°
2026-05-01 11:41 41.75693 27.86319 15405 ft 268 kts 301°
2026-05-01 11:41 41.76693 27.84252 15650 ft 269 kts 301°
2026-05-01 11:41 41.77709 27.82150 15902 ft 269 kts 300°
2026-05-01 11:42 41.78727 27.80038 16154 ft 270 kts 300°
2026-05-01 11:42 41.79746 27.77922 16408 ft 270 kts 300°
2026-05-01 11:42 41.80765 27.75807 16653 ft 271 kts 300°
2026-05-01 11:42 41.81785 27.73685 16900 ft 271 kts 300°
2026-05-01 11:43 41.82805 27.71564 17158 ft 271 kts 300°
2026-05-01 11:43 41.83827 27.69435 17414 ft 272 kts 300°
2026-05-01 11:43 41.84837 27.67331 17653 ft 273 kts 299°
2026-05-01 11:44 41.86901 27.63022 18163 ft 275 kts 299°
2026-05-01 11:44 41.87938 27.60856 18416 ft 276 kts 299°
2026-05-01 11:44 41.88977 27.58683 18662 ft 277 kts 298°
2026-05-01 11:44 41.90016 27.56512 18912 ft 277 kts 298°
2026-05-01 11:45 41.91060 27.54331 19142 ft 278 kts 298°
2026-05-01 11:45 41.92104 27.52146 19390 ft 278 kts 298°
2026-05-01 11:45 41.93132 27.49988 19636 ft 278 kts 298°
2026-05-01 11:45 41.94177 27.47793 19896 ft 280 kts 298°
2026-05-01 11:46 41.95226 27.45590 20146 ft 281 kts 298°
2026-05-01 11:46 41.96283 27.43368 20395 ft 283 kts 298°
2026-05-01 11:46 41.97344 27.41135 20647 ft 285 kts 298°
2026-05-01 11:46 41.98412 27.38886 20899 ft 286 kts 297°
2026-05-01 11:47 41.99485 27.36628 21150 ft 288 kts 297°
2026-05-01 11:47 42.00566 27.34349 21401 ft 290 kts 297°
2026-05-01 11:47 42.01635 27.32094 21653 ft 291 kts 298°
2026-05-01 11:47 42.02724 27.29796 21897 ft 292 kts 298°
2026-05-01 11:48 42.03818 27.27487 22150 ft 293 kts 298°
2026-05-01 11:48 42.04915 27.25168 22412 ft 294 kts 298°
2026-05-01 11:48 42.06017 27.22838 22651 ft 296 kts 298°
2026-05-01 11:48 42.07181 27.20544 22887 ft 299 kts 304°
2026-05-01 11:49 42.08538 27.18408 23150 ft 302 kts 307°
2026-05-01 11:49 42.09962 27.16317 23403 ft 303 kts 308°
2026-05-01 11:49 42.11376 27.14259 23646 ft 304 kts 308°
2026-05-01 11:49 42.12814 27.12154 23896 ft 306 kts 307°
2026-05-01 11:50 42.14250 27.10035 24147 ft 307 kts 307°
2026-05-01 11:50 42.15691 27.07894 24400 ft 309 kts 307°
2026-05-01 11:50 42.17129 27.05745 24652 ft 310 kts 307°
2026-05-01 11:50 42.18574 27.03578 24901 ft 311 kts 307°
2026-05-01 11:51 42.20021 27.01404 25154 ft 312 kts 307°
2026-05-01 11:51 42.21453 26.99244 25400 ft 314 kts 307°
2026-05-01 11:51 42.22906 26.97050 25650 ft 315 kts 307°
2026-05-01 11:51 42.24368 26.94841 25898 ft 316 kts 307°
2026-05-01 11:52 42.25832 26.92625 26147 ft 317 kts 307°
2026-05-01 11:52 42.27305 26.90397 26399 ft 318 kts 307°
2026-05-01 11:52 42.28778 26.88164 26647 ft 319 kts 307°
2026-05-01 11:52 42.30254 26.85925 26900 ft 320 kts 307°
2026-05-01 11:53 42.31735 26.83677 27149 ft 320 kts 307°
2026-05-01 11:53 42.33198 26.81454 27396 ft 321 kts 307°
2026-05-01 11:53 42.34681 26.79199 27653 ft 321 kts 307°
2026-05-01 11:53 42.36165 26.76941 27891 ft 321 kts 307°
2026-05-01 11:54 42.37648 26.74683 28131 ft 321 kts 307°
2026-05-01 11:54 42.39129 26.72425 28384 ft 320 kts 307°
2026-05-01 11:54 42.40605 26.70176 28631 ft 319 kts 307°
2026-05-01 11:54 42.41578 26.68691 28787 ft 318 kts 307°
2026-05-01 11:55 42.43537 26.65700 29117 ft 316 kts 307°
2026-05-01 11:55 42.44992 26.63475 29364 ft 315 kts 307°
2026-05-01 11:55 42.46419 26.61291 29602 ft 313 kts 307°
2026-05-01 11:55 42.47857 26.59089 29848 ft 311 kts 307°
2026-05-01 11:56 42.49289 26.56898 30082 ft 310 kts 307°
2026-05-01 11:56 42.50708 26.54719 30333 ft 308 kts 307°
2026-05-01 11:56 42.52121 26.52551 30570 ft 306 kts 307°
2026-05-01 11:56 42.53399 26.50264 30792 ft 303 kts 291°
2026-05-01 11:57 42.53871 26.48487 30860 ft 305 kts 279°
2026-05-01 11:57 42.54022 26.45597 30956 ft 312 kts 264°
2026-05-01 11:57 42.53784 26.42624 31080 ft 322 kts 262°
2026-05-01 11:57 42.53363 26.38558 31199 ft 336 kts 261°
2026-05-01 11:58 42.53020 26.35374 31289 ft 347 kts 261°
2026-05-01 11:58 42.52670 26.32092 31385 ft 356 kts 261°
2026-05-01 11:58 42.51959 26.25251 31550 ft 376 kts 262°
2026-05-01 11:59 42.51719 26.22901 31602 ft 382 kts 262°
2026-05-01 11:59 42.50981 26.15601 31747 ft 400 kts 262°
2026-05-01 12:00 42.50216 26.08005 31922 ft 413 kts 262°
2026-05-01 12:00 42.49823 26.04125 32152 ft 416 kts 262°
2026-05-01 12:00 42.48910 25.95134 33094 ft 413 kts 262°
2026-05-01 12:01 42.48650 25.92579 33291 ft 413 kts 262°
2026-05-01 12:01 42.48255 25.88718 33582 ft 414 kts 262°
2026-05-01 12:01 42.47729 25.83608 34023 ft 413 kts 261°
2026-05-01 12:01 42.47332 25.79757 34397 ft 412 kts 261°
2026-05-01 12:02 42.47063 25.77163 34606 ft 412 kts 261°
2026-05-01 12:02 42.46534 25.72063 34892 ft 415 kts 261°
2026-05-01 12:02 42.46131 25.68196 35163 ft 415 kts 262°
2026-05-01 12:02 42.45863 25.65640 35392 ft 414 kts 262°
2026-05-01 12:03 42.45459 25.61788 35704 ft 413 kts 262°
2026-05-01 12:03 42.45054 25.57932 35931 ft 414 kts 262°
2026-05-01 12:03 42.44645 25.54066 36193 ft 414 kts 262°
2026-05-01 12:03 42.44235 25.50196 36297 ft 418 kts 262°
2026-05-01 12:04 42.43820 25.46281 36303 ft 421 kts 262°
2026-05-01 12:04 42.42989 25.38508 36287 ft 417 kts 262°
2026-05-01 12:05 42.42161 25.30799 36289 ft 413 kts 262°
2026-05-01 12:05 42.40908 25.19238 36296 ft 415 kts 262°
2026-05-01 12:06 42.40064 25.11513 36296 ft 416 kts 262°
2026-05-01 12:06 42.39217 25.03817 36302 ft 417 kts 262°
2026-05-01 12:07 42.38360 24.96063 36321 ft 417 kts 262°
2026-05-01 12:07 42.37495 24.88293 36324 ft 418 kts 262°
2026-05-01 12:08 42.36623 24.80509 36329 ft 419 kts 262°
2026-05-01 12:08 42.35746 24.72721 36325 ft 419 kts 262°
2026-05-01 12:09 42.34868 24.64989 36327 ft 419 kts 262°
2026-05-01 12:09 42.33980 24.57207 36324 ft 419 kts 262°
2026-05-01 12:10 42.32636 24.45553 36318 ft 418 kts 262°
2026-05-01 12:11 42.31293 24.33970 36322 ft 418 kts 262°
2026-05-01 12:11 42.30388 24.26224 36306 ft 417 kts 262°
2026-05-01 12:12 42.29479 24.18503 36306 ft 416 kts 262°
2026-05-01 12:12 42.28567 24.10798 36311 ft 415 kts 261°
2026-05-01 12:13 42.27657 24.03166 36301 ft 414 kts 262°
2026-05-01 12:13 42.26736 23.95493 36296 ft 414 kts 262°
2026-05-01 12:14 42.25813 23.87823 36291 ft 414 kts 262°
2026-05-01 12:14 42.24883 23.80142 36295 ft 414 kts 262°
2026-05-01 12:15 42.23954 23.72514 36300 ft 415 kts 262°
2026-05-01 12:15 42.23013 23.64838 36291 ft 415 kts 262°
2026-05-01 12:16 42.22065 23.57154 36306 ft 416 kts 262°
2026-05-01 12:16 42.21108 23.49440 36292 ft 418 kts 262°
2026-05-01 12:17 42.20149 23.41756 36296 ft 419 kts 262°
2026-05-01 12:17 42.19178 23.34005 36301 ft 420 kts 262°
2026-05-01 12:18 42.18198 23.26229 36288 ft 421 kts 261°
2026-05-01 12:18 42.17210 23.18445 36296 ft 421 kts 261°
2026-05-01 12:19 42.16224 23.10712 36288 ft 422 kts 261°
2026-05-01 12:19 42.15224 23.02926 36286 ft 421 kts 261°
2026-05-01 12:20 42.14221 22.95152 36279 ft 421 kts 261°
2026-05-01 12:20 42.13214 22.87385 36281 ft 420 kts 261°
2026-05-01 12:21 42.12212 22.79688 36283 ft 419 kts 261°
2026-05-01 12:21 42.11198 22.71953 36278 ft 420 kts 261°
2026-05-01 12:22 42.10178 22.64214 36270 ft 420 kts 261°
2026-05-01 12:22 42.08985 22.56536 36283 ft 419 kts 257°
2026-05-01 12:23 42.07490 22.49001 36273 ft 419 kts 256°
2026-05-01 12:23 42.05959 22.41446 36273 ft 419 kts 256°
2026-05-01 12:24 42.04446 22.33891 36284 ft 418 kts 257°
2026-05-01 12:24 42.02940 22.26326 36277 ft 419 kts 257°
2026-05-01 12:25 42.00688 22.15024 36272 ft 419 kts 257°
2026-05-01 12:26 41.99175 22.07467 36264 ft 418 kts 257°
2026-05-01 12:26 41.97658 21.99916 36123 ft 420 kts 257°
2026-05-01 12:26 41.96896 21.96137 35809 ft 416 kts 256°
2026-05-01 12:27 41.96143 21.92409 35361 ft 412 kts 256°
2026-05-01 12:27 41.94656 21.85068 34543 ft 403 kts 256°
2026-05-01 12:28 41.93203 21.77919 33713 ft 396 kts 256°
2026-05-01 12:28 41.92479 21.74364 33297 ft 393 kts 256°
2026-05-01 12:28 41.91042 21.67333 32466 ft 387 kts 256°
2026-05-01 12:29 41.90332 21.63865 32073 ft 384 kts 256°
2026-05-01 12:29 41.89627 21.60423 31672 ft 381 kts 256°
2026-05-01 12:29 41.88236 21.53659 30895 ft 375 kts 256°
2026-05-01 12:30 41.86854 21.46961 30124 ft 370 kts 256°
2026-05-01 12:30 41.86169 21.43648 29736 ft 367 kts 256°
2026-05-01 12:30 41.85489 21.40366 29338 ft 364 kts 256°
2026-05-01 12:31 41.84814 21.37111 28950 ft 361 kts 256°
2026-05-01 12:31 41.84142 21.33879 28560 ft 359 kts 256°
2026-05-01 12:31 41.83482 21.30709 28179 ft 356 kts 256°
2026-05-01 12:31 41.82819 21.27526 27787 ft 354 kts 256°
2026-05-01 12:32 41.82159 21.24363 27414 ft 351 kts 256°
2026-05-01 12:32 41.80849 21.18092 26653 ft 347 kts 256°
2026-05-01 12:32 41.80197 21.14986 26279 ft 345 kts 256°
2026-05-01 12:33 41.79548 21.11899 25899 ft 343 kts 256°
2026-05-01 12:33 41.78904 21.08835 25529 ft 341 kts 256°
2026-05-01 12:33 41.78263 21.05789 25163 ft 338 kts 255°
2026-05-01 12:33 41.77625 21.02766 24797 ft 337 kts 255°
2026-05-01 12:34 41.76997 20.99795 24435 ft 335 kts 255°
2026-05-01 12:34 41.76365 20.96805 24068 ft 333 kts 255°
2026-05-01 12:34 41.75732 20.93822 23718 ft 332 kts 255°
2026-05-01 12:34 41.75102 20.90853 23346 ft 331 kts 255°
2026-05-01 12:35 41.74475 20.87900 22984 ft 329 kts 255°
2026-05-01 12:35 41.73849 20.84955 22623 ft 328 kts 255°
2026-05-01 12:35 41.73227 20.82033 22269 ft 326 kts 255°
2026-05-01 12:35 41.72607 20.79121 21914 ft 324 kts 255°
2026-05-01 12:36 41.71997 20.76266 21562 ft 323 kts 255°
2026-05-01 12:36 41.71380 20.73382 21200 ft 322 kts 255°
2026-05-01 12:36 41.70764 20.70505 20845 ft 321 kts 255°
2026-05-01 12:36 41.70151 20.67643 20492 ft 320 kts 255°
2026-05-01 12:37 41.69538 20.64787 20134 ft 319 kts 255°
2026-05-01 12:37 41.68928 20.61948 19777 ft 317 kts 255°
2026-05-01 12:37 41.68319 20.59115 19434 ft 316 kts 255°
2026-05-01 12:37 41.67711 20.56296 19086 ft 315 kts 255°
2026-05-01 12:38 41.67112 20.53525 18740 ft 313 kts 255°
2026-05-01 12:38 41.66392 20.50781 18404 ft 313 kts 250°
2026-05-01 12:38 41.65566 20.48092 18056 ft 313 kts 248°
2026-05-01 12:38 41.64720 20.45420 17713 ft 312 kts 248°
2026-05-01 12:39 41.63876 20.42756 17368 ft 311 kts 248°
2026-05-01 12:39 41.63038 20.40085 16927 ft 314 kts 248°
2026-05-01 12:39 41.62205 20.37411 16668 ft 310 kts 248°
2026-05-01 12:39 41.61381 20.34756 16321 ft 310 kts 249°
2026-05-01 12:40 41.60556 20.32094 15988 ft 309 kts 248°
2026-05-01 12:40 41.59746 20.29479 15655 ft 308 kts 248°
2026-05-01 12:40 41.58928 20.26835 15319 ft 308 kts 248°
2026-05-01 12:40 41.58110 20.24196 14985 ft 307 kts 248°
2026-05-01 12:41 41.57294 20.21565 14647 ft 307 kts 248°
2026-05-01 12:41 41.56458 20.18949 14310 ft 306 kts 243°
2026-05-01 12:41 41.55114 20.16774 13942 ft 307 kts 217°
2026-05-01 12:41 41.53288 20.15279 13598 ft 308 kts 209°
2026-05-01 12:42 41.51401 20.13894 13201 ft 311 kts 208°
2026-05-01 12:42 41.49523 20.12535 12815 ft 311 kts 208°
2026-05-01 12:42 41.47623 20.11155 12439 ft 311 kts 208°
2026-05-01 12:42 41.45726 20.09771 12042 ft 311 kts 208°
2026-05-01 12:43 41.43829 20.08378 11647 ft 311 kts 208°
2026-05-01 12:43 41.41935 20.06982 11268 ft 310 kts 208°
2026-05-01 12:43 41.40050 20.05593 10902 ft 310 kts 208°
2026-05-01 12:43 41.38164 20.04202 10508 ft 310 kts 209°
2026-05-01 12:44 41.36280 20.02810 10113 ft 310 kts 208°
2026-05-01 12:44 41.34427 20.01447 10051 ft 297 kts 208°
2026-05-01 12:44 41.30987 19.98913 9601 ft 278 kts 208°
2026-05-01 12:45 41.27583 19.96403 8669 ft 280 kts 208°
2026-05-01 12:45 41.25889 19.95153 8371 ft 277 kts 208°
2026-05-01 12:45 41.24211 19.93916 8021 ft 275 kts 208°
2026-05-01 12:46 41.22537 19.92685 7675 ft 275 kts 208°
2026-05-01 12:46 41.20886 19.91427 7350 ft 273 kts 215°
2026-05-01 12:46 41.19681 19.89525 6947 ft 272 kts 245°
2026-05-01 12:46 41.19239 19.87084 6326 ft 278 kts 265°
2026-05-01 12:47 41.19059 19.84515 5706 ft 281 kts 265°
2026-05-01 12:47 41.18880 19.81935 5181 ft 281 kts 265°
2026-05-01 12:47 41.18774 19.79343 4604 ft 281 kts 276°
2026-05-01 12:47 41.19435 19.76949 4046 ft 278 kts 307°
2026-05-01 12:48 41.20848 19.75299 3758 ft 266 kts 332°
2026-05-01 12:48 41.22554 19.74535 3446 ft 256 kts 354°
2026-05-01 12:48 41.24279 19.74307 3320 ft 241 kts 355°
2026-05-01 12:48 41.25860 19.74111 3215 ft 222 kts 355°
2026-05-01 12:49 41.27334 19.73922 3094 ft 204 kts 355°
2026-05-01 12:49 41.28687 19.73744 2990 ft 186 kts 355°
2026-05-01 12:49 41.29906 19.73585 2873 ft 164 kts 355°
2026-05-01 12:49 41.30979 19.73440 2647 ft 151 kts 355°
2026-05-01 12:50 41.32016 19.73298 2338 ft 147 kts 356°
2026-05-01 12:50 41.33026 19.73171 2042 ft 144 kts 356°
2026-05-01 12:50 41.34015 19.73043 1769 ft 140 kts 356°
2026-05-01 12:50 41.34977 19.72917 1536 ft 139 kts 356°
2026-05-01 12:51 41.35927 19.72793 1322 ft 139 kts 356°
2026-05-01 12:51 41.36896 19.72665 1067 ft 141 kts 356°
2026-05-01 12:51 41.38832 19.72414 501 ft 138 kts 356°
2026-05-01 12:52 41.39786 19.72303 283 ft 139 kts 348°
2026-05-01 12:52 41.41686 19.72031 123 ft 110 kts 354°
2026-05-01 12:52 41.42216 19.71957 119 ft 39 kts 355°
2026-05-01 12:53 41.42282 19.71828 119 ft 0 kts 263°
2026-05-01 12:53 41.42282 19.71827 119 ft 0 kts 263°
2026-05-01 12:54 41.42282 19.71824 119 ft 1 kts 263°
2026-05-01 12:54 41.42277 19.71774 117 ft 6 kts 263°
2026-05-01 12:54 41.42272 19.71705 117 ft 9 kts 263°
2026-05-01 12:55 41.42230 19.71544 117 ft 8 kts 188°
2026-05-01 12:55 41.42162 19.71550 120 ft 11 kts 174°
2026-05-01 12:55 41.42079 19.71561 121 ft 13 kts 174°
2026-05-01 12:56 41.42018 19.71570 118 ft 7 kts 173°
2026-05-01 12:56 41.41998 19.71560 122 ft 4 kts 226°
2026-05-01 12:56 41.41989 19.71529 126 ft 2 kts 261°
2026-05-01 12:56 41.41988 19.71513 120 ft 2 kts 263°
2026-05-01 12:57 41.41988 19.71509 121 ft 0 kts 264°